Location: Haliburton Scout Reserve
(45.0900°N, 78.3200°W)
Time: 07:14:11
(UTC-04:00)

S-56A Canister/Altair - Pass Details

Date: 29 January 2023
Orbit: 639 x 2493 km, 38.9° (Epoch: 27 March)

Event Time Altitude Azimuth Distance (km) Brightness Sun altitude
Rises 17:23:33 0° 274° (W) 3,970 12.5 -2.0°
Reaches altitude 10° 17:26:08 10° 266° (W) 3,229 12.2 -2.4°
Maximum altitude 17:33:40 39° 201° (SSW) 2,274 10.4 -3.6°
Drops below altitude 10° 17:44:24 10° 140° (SE) 4,585 11.3 -5.4°
Sets 17:48:51 0° 133° (SE) 5,815 11.7 -6.1°
